Regional Weather Roundup
Issued by NWS

Home | Current Version | Previous Version | Text Only | Print | Product List | Glossary Off
Versions: 1 2 3 4 5 6 7 8 9 10 11 12 13 14 15 16 17 18 19 20 21 22 23 24 25 26 27 28 29 30 31 32 33 34 35 36 37 38 39 40 41 42 43 44 45 46 47 48 49 50

000
ASUS43 KOAX 282302
RWRNE

WEATHER ROUNDUP FOR NEBRASKA
NATIONAL WEATHER SERVICE OMAHA NE
500 PM CST FRI NOV 28 2014

NOTES: SATELLITE DATA IS BEING USED TO AUGMENT CLOUD COVER ABOVE
       12000 FEET.
       "FAIR" INDICATES FEW OR NO CLOUDS BELOW 12,000 FEET WITH NO
       SIGNIFICANT WEATHER AND/OR OBSTRUCTIONS TO VISIBILITY.

  * THESE STATIONS DO NOT REPORT WEATHER SUCH AS RAIN...SNOW OR FOG.

NEZ001>004-019>022-054>056-290000-
NEBRASKA PANHANDLE

CITY           SKY/WX    TMP DP  RH WIND       PRES   REMARKS
SCOTTSBLUFF    MOCLDY    59  21  23 W12       29.72R
ALLIANCE       MOCLDY    57  18  21 W13       29.70R
CHADRON        PTCLDY   N/A N/A N/A SW12      29.64R
SIDNEY         CLOUDY    55  25  31 SW8       29.77S
$$

NEZ057>060-069>072-079>082-290000-
SOUTHWEST NEBRASKA

CITY           SKY/WX    TMP DP  RH WIND       PRES   REMARKS
NORTH PLATTE   MOCLDY    58  21  24 W7        29.70R
IMPERIAL       CLOUDY    64  17  16 W6        29.74S
LEXINGTON      CLOUDY    63  18  17 W9        29.69S
MCCOOK         MOCLDY    69  10  10 NW7       29.71F
$$

NEZ005>010-023>029-035>040-094-290000-
NORTH CENTRAL NEBRASKA

CITY           SKY/WX    TMP DP  RH WIND       PRES   REMARKS
VALENTINE      CLOUDY    56  27  32 W6        29.62F
AINSWORTH      CLOUDY    56  28  32 W5        29.63S
BROKEN BOW     CLOUDY    60  23  24 NW9       29.66S
ORD            CLOUDY    59  23  25 W9        29.63R
$$

NEZ041-046>049-061>064-073>077-083>087-290000-
SOUTH CENTRAL NEBRASKA

CITY           SKY/WX    TMP DP  RH WIND       PRES   REMARKS
GRAND ISLAND   MOCLDY    61  26  26 SW10      29.65F
AURORA         MOCLDY    58  26  29 SW7       29.65S
HASTINGS       CLOUDY    63  24  22 CALM      29.67S
KEARNEY *      CLOUDY    64  21  19 SW9       29.69S
YORK           MOCLDY    57  45  62 S6        29.65F
$$

NEZ011>018-030>034-042>045-290000-
NORTHEAST NEBRASKA

CITY           SKY/WX    TMP DP  RH WIND       PRES   REMARKS
NORFOLK        PTCLDY    55  32  41 S12       29.61R
ALBION         MOCLDY    60  23  24 CALM      29.62S
BLAIR          CLEAR     50  32  49 SE8       29.67S
COLUMBUS *     PTCLDY    57  30  35 S9        29.64F
TEKAMAH        CLEAR     45  30  55 SE10      29.67F
$$

NEZ050>053-065>068-078-088>093-290000-
SOUTHEAST NEBRASKA

CITY           SKY/WX    TMP DP  RH WIND       PRES   REMARKS
LINCOLN        CLEAR     54  31  41 S10       29.67F
OMAHA EPPLEY   PTCLDY    46  31  55 S9        29.69F
BEATRICE       PTCLDY    54  32  43 S12       29.70S
FALLS CITY     CLEAR     48  32  53 SE6       29.71F
NEBRASKA CITY  CLEAR     51  27  39 S12       29.70R
PLATTSMOUTH    CLEAR     47  29  49 S7        29.69S
$$

NEZ044-045-051>053-067-290000-
OMAHA AREA

CITY           SKY/WX    TMP DP  RH WIND       PRES   REMARKS
OMAHA EPPLEY   PTCLDY    46  31  55 S9        29.69F
BLAIR          CLEAR     50  32  49 SE8       29.67S
OFFUTT AFB     CLEAR     42  30  62 SE7       29.68F
PLATTSMOUTH    CLEAR     47  29  49 S7        29.69S
WAHOO          FAIR      46  29  52 SE10      29.66F
$$


USA.gov is the U.S. government's official web portal to all federal, state and local government web resources and services.